Location: Monroe
(41.9160°N, 83.3980°W)
Time: 19:33:56
(UTC-04:00)

Amateur Radio Satellites - All Passes

Search period start: 01 September 2014 19:03
Search period end: 02 September 2014 19:03
Location: Monroe, 41.9160°N, 83.3980°W

Satellite Date Start Highest point End Downlink Frequencies (MHz)
Time Altitude Azimuth
Sapphire 01 Sep 19:03:55 19:08:10 23° 315° (NW) 19:12:26 437.095 MHz 1200 baud AX-25 AFSK
RS-15 01 Sep 19:13:21 19:22:45 33° 254° (WSW) 19:32:31 29.354 - 29.394 USB, Beacon 29.352 USB
JAS-2 01 Sep 19:20:51 19:26:42 47° 260° (W) 19:32:00 435.800 - 435.900 CW/SSB, 435.910 FM
PCSat 01 Sep 19:35:05 19:37:59 14° 322° (NW) 19:40:54 145.825 MHz
SO-67 01 Sep 19:41:31 19:44:55 56° 75° (ENE) 19:48:20 435.3500 MHz FM
STRAND 1 01 Sep 20:26:58 20:32:06 78° 103° (ESE) 20:37:12 ?
HO-68 01 Sep 20:48:36 20:55:08 40° 64° (ENE) 21:01:40 435.675 MHz FM
MaSat-1 01 Sep 21:32:55 21:34:38 12° 42° (NE) 21:36:17 437.345 MHz
STRAND 1 01 Sep 22:08:02 22:10:38 14° 301° (WNW) 22:13:14 ?
UKube-1 01 Sep 22:09:14 22:13:34 86° 76° (ENE) 22:17:56 145.840 MHz, 145.915 MHz
Oscar 11 01 Sep 22:13:08 22:17:22 57° 74° (ENE) 22:21:40 145.825 FM, Beacon 2401.500 USB
HO-68 01 Sep 22:36:10 22:42:47 41° 262° (W) 22:49:27 435.675 MHz FM
Saudisat 1A 01 Sep 22:43:51 22:48:06 50° 118° (ESE) 22:52:22 436.775 MHz
FUNcube-1 01 Sep 22:45:03 22:49:04 48° 72° (ENE) 22:53:12 145.950 - 145.970 MHz USB
AO-40 01 Sep 22:52:49 04:55:49 40° 169° (S) 06:45:46 Beacon 2401.320
MaSat-1 01 Sep 23:07:59 23:12:33 84° 64° (ENE) 23:16:28 437.345 MHz
KITSAT 1 01 Sep 23:26:27 23:34:03 47° 111° (ESE) 23:41:41 435.175 FM
Oscar 11 01 Sep 23:51:55 23:53:55 13° 270° (W) 23:55:56 145.825 FM, Beacon 2401.500 USB
FUNcube-1 02 Sep 00:23:27 00:25:47 14° 269° (W) 00:28:08 145.950 - 145.970 MHz USB
Saudisat 1A 02 Sep 00:24:31 00:27:56 22° 317° (NW) 00:31:23 436.775 MHz
Sapphire 02 Sep 00:25:34 00:27:15 11° 34° (NE) 00:28:55 437.095 MHz 1200 baud AX-25 AFSK
PCSat 02 Sep 00:53:29 00:57:09 18° 42° (NE) 01:00:48 145.825 MHz
KITSAT 1 02 Sep 01:21:51 01:29:30 44° 312° (NW) 01:37:12 435.175 FM
Sapphire 02 Sep 02:06:39 02:11:58 53° 56° (NE) 02:17:15 437.095 MHz 1200 baud AX-25 AFSK
PCSat 02 Sep 02:35:50 02:41:17 85° 242° (WSW) 02:46:42 145.825 MHz
Oscar 19 02 Sep 02:39:09 02:43:59 38° 97° (E) 02:48:46 437.125 CW, 437.150 USB
AO-Echo 02 Sep 02:48:35 02:52:06 21° 94° (E) 02:55:37 ?
Oscar 16 02 Sep 03:14:13 03:19:27 83° 103° (ESE) 03:24:38 437.025 USB, Beacon 2401.1428
ITAMSAT 1 02 Sep 03:16:54 03:21:42 37° 98° (E) 03:26:28 435.822 SSB
Oscar 10/S400 02 Sep 03:17:45 04:26:50 41° 227° (SW) 09:36:06 145.825 - 145.975 CW/USB, Beacon 145.810 USB
KITSAT 1 02 Sep 03:22:49 03:27:22 16° 338° (NNW) 03:31:56 435.175 FM
SO-50 02 Sep 03:23:25 03:27:18 30° 114° (ESE) 03:31:16 436.795 FM
Uribyol 2 02 Sep 03:26:06 03:31:07 48° 100° (E) 03:36:08 436.500 FM
JAS-1B 02 Sep 03:31:59 03:38:19 46° 97° (E) 03:43:53 435.800 - 435.900 CW/SSB
TMSAT-1 02 Sep 03:39:12 03:43:06 21° 92° (E) 03:46:59 436.925 FM
AO-27 02 Sep 03:46:21 03:51:33 71° 103° (ESE) 03:56:43 436.795 MHz FM
Sapphire 02 Sep 03:50:53 03:55:00 22° 253° (WSW) 03:59:06 437.095 MHz 1200 baud AX-25 AFSK
OPAL 02 Sep 04:17:14 04:21:40 31° 64° (ENE) 04:26:10 ?
Oscar 19 02 Sep 04:18:48 04:23:09 28° 294° (WNW) 04:27:29 437.125 CW, 437.150 USB
PCSat 02 Sep 04:22:26 04:23:49 11° 259° (WSW) 04:25:12 145.825 MHz
AO-Echo 02 Sep 04:26:39 04:31:03 40° 290° (WNW) 04:35:27 ?
Gurwin Techsat 1B 02 Sep 04:28:04 04:33:24 79° 103° (ESE) 04:38:42 435.225 FM
Oscar 16 02 Sep 04:55:34 04:58:05 14° 301° (WNW) 05:00:36 437.025 USB, Beacon 2401.1428
ITAMSAT 1 02 Sep 04:56:40 05:01:03 28° 294° (WNW) 05:05:25 435.822 SSB
SO-50 02 Sep 05:03:43 05:07:47 33° 312° (NW) 05:11:57 436.795 FM
Uribyol 2 02 Sep 05:06:18 05:10:16 23° 296° (WNW) 05:14:14 436.500 FM
UOSAT-12 02 Sep 05:09:20 05:13:17 29° 113° (ESE) 05:17:19 437.025 FM, 437.400 FM
TMSAT-1 02 Sep 05:18:11 05:23:18 51° 289° (WNW) 05:28:24 436.925 FM
Uosat F 02 Sep 05:19:12 05:23:40 32° 97° (E) 05:28:07 435.120 FM
JAS-1B 02 Sep 05:23:08 05:28:37 28° 300° (WNW) 05:33:32 435.800 - 435.900 CW/SSB
KITSAT 1 02 Sep 05:23:58 05:27:02 12° 10° (N) 05:30:05 435.175 FM
AO-27 02 Sep 05:27:25 05:30:28 16° 300° (WNW) 05:33:31 436.795 MHz FM
AO-7 02 Sep 05:32:54 05:40:53 49° 101° (E) 05:48:48 29.400 - 29.500 MHz
OPAL 02 Sep 05:55:55 06:00:27 33° 261° (W) 06:05:06 ?
STRAND 1 02 Sep 06:06:54 06:09:49 16° 60° (ENE) 06:12:44 ?
Gurwin Techsat 1B 02 Sep 06:09:49 06:12:41 15° 301° (WNW) 06:15:34 435.225 FM
Hamsat 02 Sep 06:24:21 06:26:41 14° 90° (E) 06:29:00 145.90 MHz
JAS-2 02 Sep 06:29:26 06:33:10 19° 93° (E) 06:37:04 435.800 - 435.900 CW/SSB, 435.910 FM
UOSAT-12 02 Sep 06:49:03 06:53:19 36° 312° (NW) 06:57:41 437.025 FM, 437.400 FM
Uosat F 02 Sep 06:58:03 07:02:23 30° 293° (WNW) 07:06:42 435.120 FM
Saudisat 1A 02 Sep 07:10:13 07:14:28 45° 51° (NE) 07:18:41 436.775 MHz
KITSAT 1 02 Sep 07:19:02 07:25:48 28° 39° (NE) 07:32:32 435.175 FM
RS-15 02 Sep 07:24:38 07:34:43 43° 109° (ESE) 07:44:38 29.354 - 29.394 USB, Beacon 29.352 USB
AO-7 02 Sep 07:25:59 07:33:29 40° 300° (WNW) 07:40:58 29.400 - 29.500 MHz
STRAND 1 02 Sep 07:43:20 07:48:25 71° 257° (WSW) 07:53:31 ?
Hamsat 02 Sep 07:58:44 08:02:58 51° 287° (WNW) 08:07:08 145.90 MHz
JAS-2 02 Sep 08:13:25 08:18:34 55° 288° (WNW) 08:24:08 435.800 - 435.900 CW/SSB, 435.910 FM
SO-67 02 Sep 08:37:47 08:41:14 66° 101° (E) 08:44:40 435.3500 MHz FM
Saudisat 1A 02 Sep 08:50:30 08:53:45 20° 248° (WSW) 08:56:58 436.775 MHz
KITSAT 1 02 Sep 09:14:02 09:22:09 83° 241° (WSW) 09:30:12 435.175 FM
RS-15 02 Sep 09:35:51 09:46:41 59° 311° (NW) 09:57:28 29.354 - 29.394 USB, Beacon 29.352 USB
ISS 02 Sep 09:47:29 09:50:13 24° 135° (SE) 09:52:57 145.800 FM
UKube-1 02 Sep 09:58:46 10:01:03 14° 92° (E) 10:03:20 145.840 MHz, 145.915 MHz
HO-68 02 Sep 10:02:55 10:09:33 39° 98° (E) 10:16:08 435.675 MHz FM
Oscar 11 02 Sep 10:03:46 10:04:06 10° 89° (E) 10:04:27 145.825 FM, Beacon 2401.500 USB
KITSAT 1 02 Sep 11:11:45 11:16:18 16° 260° (W) 11:20:51 435.175 FM
ISS 02 Sep 11:23:35 11:26:47 44° 331° (NNW) 11:30:00 145.800 FM
UKube-1 02 Sep 11:33:20 11:37:34 53° 288° (WNW) 11:41:47 145.840 MHz, 145.915 MHz
Oscar 11 02 Sep 11:36:25 11:40:47 73° 285° (WNW) 11:45:07 145.825 FM, Beacon 2401.500 USB
HO-68 02 Sep 11:50:38 11:57:14 42° 296° (WNW) 12:03:50 435.675 MHz FM
RS-15 02 Sep 11:53:35 12:02:02 24° 342° (NNW) 12:10:34 29.354 - 29.394 USB, Beacon 29.352 USB
SO-50 02 Sep 11:54:06 11:58:28 34° 48° (NE) 12:02:52 436.795 FM
FUNcube-1 02 Sep 12:09:36 12:14:10 81° 284° (WNW) 12:18:46 145.950 - 145.970 MHz USB
JAS-1B 02 Sep 12:31:02 12:34:05 12° 49° (NE) 12:37:02 435.800 - 435.900 CW/SSB
Oscar 16 02 Sep 12:54:44 12:57:56 17° 61° (ENE) 13:01:08 437.025 USB, Beacon 2401.1428
MaSat-1 02 Sep 12:55:28 12:59:55 36° 107° (ESE) 13:04:36 437.345 MHz
ISS 02 Sep 13:01:53 13:04:09 17° 351° (N) 13:06:25 145.800 FM
Uribyol 2 02 Sep 13:10:23 13:10:54 10° 56° (NE) 13:11:25 436.500 FM
PANSAT 02 Sep 13:10:34 13:11:43 11° 181° (S) 13:12:52 not established
AO-27 02 Sep 13:28:23 13:31:14 15° 60° (ENE) 13:34:06 436.795 MHz FM
SO-50 02 Sep 13:34:43 13:39:00 33° 245° (WSW) 13:43:18 436.795 FM
UOSAT-12 02 Sep 13:38:10 13:42:23 31° 47° (NE) 13:46:32 437.025 FM, 437.400 FM
Oscar 19 02 Sep 13:56:15 14:01:17 56° 72° (ENE) 14:06:23 437.125 CW, 437.150 USB
AO-Echo 02 Sep 14:01:43 14:06:00 30° 68° (ENE) 14:10:12 ?
RS-15 02 Sep 14:11:05 14:19:36 25° 18° (NNE) 14:28:15 29.354 - 29.394 USB, Beacon 29.352 USB
Gurwin Techsat 1B 02 Sep 14:12:06 14:15:29 18° 61° (ENE) 14:18:54 435.225 FM
JAS-1B 02 Sep 14:13:45 14:22:56 52° 68° (ENE) 14:31:05 435.800 - 435.900 CW/SSB
Oscar 16 02 Sep 14:31:35 14:36:43 67° 258° (WSW) 14:41:54 437.025 USB, Beacon 2401.1428
MaSat-1 02 Sep 14:32:29 14:36:57 32° 306° (NW) 14:41:34 437.345 MHz
ITAMSAT 1 02 Sep 14:35:13 14:40:16 58° 72° (ENE) 14:45:21 435.822 SSB
ISS 02 Sep 14:39:27 14:41:50 18° 12° (NNE) 14:44:12 145.800 FM
AO-7 02 Sep 14:44:15 14:48:52 16° 46° (NE) 14:53:29 29.400 - 29.500 MHz
Uribyol 2 02 Sep 14:44:20 14:49:27 75° 74° (ENE) 14:54:38 436.500 FM
TMSAT-1 02 Sep 15:00:07 15:04:48 33° 67° (ENE) 15:09:31 436.925 FM
AO-27 02 Sep 15:04:57 15:10:07 75° 257° (WSW) 15:15:19 436.795 MHz FM
UOSAT-12 02 Sep 15:18:15 15:22:34 36° 245° (WSW) 15:26:48 437.025 FM, 437.400 FM
Oscar 19 02 Sep 15:37:32 15:40:59 18° 269° (W) 15:44:28 437.125 CW, 437.150 USB
PCSat 02 Sep 15:39:16 15:40:30 11° 101° (ESE) 15:41:44 145.825 MHz
AO-Echo 02 Sep 15:40:18 15:44:43 31° 263° (W) 15:49:02 ?
Gurwin Techsat 1B 02 Sep 15:49:39 15:54:54 66° 258° (WSW) 16:00:12 435.225 FM
JAS-1B 02 Sep 16:04:24 16:13:26 42° 263° (W) 16:21:37 435.800 - 435.900 CW/SSB
ISS 02 Sep 16:15:50 16:19:07 54° 31° (NNE) 16:22:23 145.800 FM
ITAMSAT 1 02 Sep 16:16:47 16:20:08 17° 268° (W) 16:23:30 435.822 SSB
RS-15 02 Sep 16:24:07 16:35:01 58° 48° (NE) 16:46:16 29.354 - 29.394 USB, Beacon 29.352 USB
Uribyol 2 02 Sep 16:27:08 16:29:29 13° 271° (W) 16:31:51 436.500 FM
AO-7 02 Sep 16:31:55 16:40:09 67° 67° (ENE) 16:48:23 29.400 - 29.500 MHz
Uosat F 02 Sep 16:32:43 16:37:29 47° 70° (ENE) 16:42:16 435.120 FM
TMSAT-1 02 Sep 16:40:02 16:44:42 31° 264° (W) 16:49:23 436.925 FM
Sapphire 02 Sep 16:48:51 16:53:57 45° 113° (ESE) 16:59:05 437.095 MHz 1200 baud AX-25 AFSK
PCSat 02 Sep 17:17:37 17:23:01 84° 118° (ESE) 17:28:28 145.825 MHz
Hamsat 02 Sep 17:19:15 17:20:51 12° 62° (ENE) 17:22:28 145.90 MHz
ISS 02 Sep 17:53:10 17:55:35 19° 227° (SW) 17:57:59 145.800 FM
OPAL 02 Sep 18:04:42 18:09:54 62° 104° (ESE) 18:15:02 ?
Uosat F 02 Sep 18:12:49 18:16:30 20° 267° (W) 18:20:12 435.120 FM
JAS-2 02 Sep 18:25:44 18:31:39 63° 73° (ENE) 18:37:00 435.800 - 435.900 CW/SSB, 435.910 FM
AO-7 02 Sep 18:26:42 18:33:29 27° 266° (W) 18:40:18 29.400 - 29.500 MHz
Sapphire 02 Sep 18:32:51 18:37:32 29° 311° (NW) 18:42:15 437.095 MHz 1200 baud AX-25 AFSK
RS-15 02 Sep 18:36:53 18:47:05 44° 251° (WSW) 18:57:43 29.354 - 29.394 USB, Beacon 29.352 USB
Hamsat 02 Sep 18:51:54 18:56:13 71° 259° (WSW) 19:00:35 145.90 MHz
